トゥビオロ彗星

P/2005 E1 ( Tubbiolo )

English version
Home page
Updated on May 29, 2005

---------------------------------------------------------------------

・ プロフィール

発見日 2005年3月3日
発見光度 20.9等
発見者 Andrew F. Tubbiolo (Kitt Peak)

・ 軌道要素

T 2005 Mar. 14.3163 TT                                  MPC
q   4.444624             (2000.0)            P               Q
n   0.0507609      Peri.  170.3033      -0.9957078      -0.0922941
a   7.224095       Node     4.4188      +0.0777586      -0.8747437
e   0.384750       Incl.    5.1515      +0.0501963      -0.4757155
P  19.4
>From 58 observations 2005 Mar. 3-May 9.

・ 星図

・ 光度変化

        m1 = 10.5 + 5 logΔ + 10.0 log r

---------------------------------------------------------------------

軌道要素はM.P.E.C. 2005-J37に掲載されたものです。
星図は StellaNavigator Ver.2.0 for Windows (アストロアーツ 編著 / アスキー出版局刊) で作成したものです。
光度グラフはComet for Windowsで作成したものです。

---------------------------------------------------------------------

Copyright(C) Seiichi Yoshida (comet@aerith.net). All rights reserved.